Location: Bidart
(43.4376°N, 1.5913°W)
Time: 12:55:44
(UTC+00:00)

MetOp-B - Pass Details

Date: 19 May 2025
Orbit: 819 x 821 km, 98.6° (Epoch: 12 June)

Event Time Altitude Azimuth Distance (km) Brightness Sun altitude
Exits shadow 20:20:55 - 155° (SSE) 2,639 6.2 -8.7°
Reaches altitude 10° 20:21:30 10° 155° (SSE) 2,410 6.0 -8.8°
Maximum altitude 20:26:47 68° 73° (ENE) 881 4.2 -9.6°
Drops below altitude 10° 20:32:07 10° 351° (N) 2,425 7.4 -10.3°
Sets 20:34:29 0° 349° (N) 3,362 8.2 -10.6°
